User: anonymous   Login
Location: Gönnheim
(49.4488°N, 8.2383°E)
Time: 18:03:29
(UTC+00:00)
Language:

SeaSat 1 - Orbit

View from above orbital plane
View from above orbital plane
View from above satellite
View from above satellite

Ground track
Ground track

The orbit data is extracted from the following two-line orbital elements,

1 10967U 78064A   25196.90269370  .00000180  00000-0  89339-4 0  9992
2 10967 108.0110 348.7616 0001064 297.1802  62.9235 14.45866033472281
Epoch (UTC): 15 July 2025 21:39:52
Eccentricity: 0.0001064
inclination: 108.0110°
perigee height: 738 km
apogee height: 740 km
right ascension of ascending node: 348.7616°
argument of perigee: 297.1802°
revolutions per day: 14.45866033
mean anomaly at epoch: 62.9235°
orbit number at epoch: 47228

The dashed part of the orbit path shows where the satellite is in the earth's shadow,  

DLR